FW1419 Weather Reports


Display with metric or nautical units.
time (UTC)temp
F
wind
direction
speed
MPH
gust
MPH
rain 1hr
in
rain 24hr
in
rain mn
in
humidity
%
barometer
mb
20260507045821 62 291 0.0 0.0 0.00 0.00 0.00 72 1017.9
20260507045317 62 291 0.0 0.0 0.00 0.00 0.00 71 1017.8
20260507044829 63 291 0.0 0.0 0.00 0.00 0.00 70 1017.8
20260507044321 63 291 0.0 0.0 0.00 0.00 0.00 70 1017.7
20260507043811 63 291 0.0 0.0 0.00 0.00 0.00 69 1017.7
20260507043323 63 291 0.0 0.0 0.00 0.00 0.00 69 1017.6
20260507042814 63 229 0.0 0.0 0.00 0.00 0.00 69 1017.7
20260507042325 64 229 0.0 0.0 0.00 0.00 0.00 69 1017.6
20260507041816 64 229 0.0 0.0 0.00 0.00 0.00 68 1017.6
20260507041311 64 229 0.0 0.0 0.00 0.00 0.00 68 1017.6
20260507040822 63 229 0.0 0.0 0.00 0.00 0.00 68 1017.5
20260507040312 64 229 0.0 0.0 0.00 0.00 0.00 66 1017.4
20260507035824 64 229 0.0 0.0 0.00 0.00 0.00 66 1017.4
20260507035314 64 229 0.0 0.0 0.00 0.00 0.00 66 1017.4
20260507034826 65 229 0.0 0.0 0.00 0.00 0.00 64 1017.3
20260507034317 65 229 0.0 0.0 0.00 0.00 0.00 64 1017.2
20260507033828 65 229 0.0 0.0 0.00 0.00 0.00 63 1017.2
20260507033319 66 229 0.0 0.0 0.00 0.00 0.00 63 1017.1
20260507032829 66 229 0.0 0.0 0.00 0.00 0.00 62 1017.1
20260507032325 66 229 0.0 0.0 0.00 0.00 0.00 61 1017.0
20260507031816 67 229 0.0 0.0 0.00 0.00 0.00 61 1017.1
20260507031348 67 229 0.0 2.0 0.00 0.00 0.00 60 1016.9
20260507030817 68 229 1.0 6.0 0.00 0.00 0.00 60 1016.8
20260507030329 68 219 1.0 6.0 0.00 0.00 0.00 59 1016.8
20260507025821 68 208 1.0 4.0 0.00 0.00 0.00 59 1016.7
20260507025311 68 210 2.0 6.0 0.00 0.00 0.00 58 1016.6
20260507024822 69 207 4.0 7.0 0.00 0.00 0.00 58 1016.6
20260507024333 69 207 3.0 7.0 0.00 0.00 0.00 57 1016.5
20260507023823 69 229 3.0 6.0 0.00 0.00 0.00 57 1016.5
20260507023334 70 236 2.0 7.0 0.00 0.00 0.00 56 1016.3
20260507022824 70 200 3.0 8.0 0.00 0.00 0.00 56 1016.3
20260507022318 70 233 4.0 10.0 0.00 0.00 0.00 55 1016.2
20260507021829 71 215 5.0 10.0 0.00 0.00 0.00 54 1016.2
20260507021341 71 219 5.0 9.0 0.00 0.00 0.00 54 1016.1
20260507020830 72 220 5.0 10.0 0.00 0.00 0.00 53 1016.0
20260507020321 72 215 6.0 10.0 0.00 0.00 0.00 52 1015.9
20260507015852 73 193 5.0 11.0 0.00 0.00 0.00 52 1015.8
20260507015323 73 194 7.0 11.0 0.00 0.00 0.00 51 1015.8
20260507014813 74 233 5.0 11.0 0.00 0.00 0.00 50 1015.6
20260507014325 74 245 5.0 10.0 0.00 0.00 0.00 49 1015.7
20260507013837 75 214 5.0 10.0 0.00 0.00 0.00 48 1015.7
20260507013311 75 233 6.0 10.0 0.00 0.00 0.00 47 1015.5
20260507012822 76 209 4.0 9.0 0.00 0.00 0.00 47 1015.5
20260507012312 76 217 4.0 9.0 0.00 0.00 0.00 45 1015.5
20260507011823 77 206 3.0 9.0 0.00 0.00 0.00 45 1015.4
20260507011315 77 233 3.0 9.0 0.00 0.00 0.00 43 1015.4
20260507010847 77 272 4.0 7.0 0.00 0.00 0.00 43 1015.3
20260507010317 77 255 2.0 11.0 0.00 0.00 0.00 42 1015.3
20260507005830 78 285 3.0 11.0 0.00 0.00 0.00 42 1015.3
20260507005342 78 262 4.0 8.0 0.00 0.00 0.00 41 1015.2
20260507004811 78 213 3.0 8.0 0.00 0.00 0.00 40 1015.2
20260507004321 79 215 2.0 8.0 0.00 0.00 0.00 40 1015.2
20260507003817 79 236 2.0 6.0 0.00 0.00 0.00 39 1015.2
20260507003328 78 285 4.0 8.0 0.00 0.00 0.00 34 1015.2
20260507002819 78 281 4.0 8.0 0.00 0.00 0.00 33 1015.1
20260507002329 79 305 2.0 8.0 0.00 0.00 0.00 33 1015.1
20260507001819 78 308 3.0 12.0 0.00 0.00 0.00 33 1015.1
20260507001310 79 245 4.0 12.0 0.00 0.00 0.00 33 1014.9
20260507000841 79 307 4.0 9.0 0.00 0.00 0.00 32 1014.9
20260507000331 79 208 4.0 9.0 0.00 0.00 0.00 33 1014.9
20260506235821 79 303 3.0 11.0 0.00 0.00 0.00 33 1014.8
20260506235316 78 257 5.0 11.0 0.00 0.00 0.00 33 1014.8
20260506234827 78 314 5.0 11.0 0.00 0.00 0.00 34 1014.8
20260506234319 79 342 5.0 10.0 0.00 0.00 0.00 33 1014.8
20260506233850 78 323 5.0 11.0 0.00 0.00 0.00 33 1014.8
20260506233320 79 306 6.0 11.0 0.00 0.00 0.00 33 1014.8
20260506232812 79 296 4.0 11.0 0.00 0.00 0.00 33 1014.8
20260506232324 79 263 2.0 15.0 0.00 0.00 0.00 34 1014.7
20260506231835 79 315 5.0 15.0 0.00 0.00 0.00 33 1014.8
20260506231325 79 289 3.0 8.0 0.00 0.00 0.00 33 1014.8
20260506230816 79 300 4.0 9.0 0.00 0.00 0.00 33 1014.9
20260506230327 80 298 2.0 9.0 0.00 0.00 0.00 33 1014.9
20260506225838 79 216 1.0 6.0 0.00 0.00 0.00 33 1014.9
20260506225312 80 226 3.0 6.0 0.00 0.00 0.00 32 1015.0
20260506224823 79 231 0.0 4.0 0.00 0.00 0.00 33 1015.0
20260506224314 80 276 2.0 6.0 0.00 0.00 0.00 32 1015.1
20260506223825 79 215 2.0 6.0 0.00 0.00 0.00 33 1015.2
20260506223317 79 224 2.0 6.0 0.00 0.00 0.00 34 1015.3
20260506222849 78 231 1.0 6.0 0.00 0.00 0.00 34 1015.2
20260506222318 79 266 2.0 6.0 0.00 0.00 0.00 33 1015.3
20260506221830 79 130 2.0 6.0 0.00 0.00 0.00 34 1015.4
20260506221320 78 247 1.0 5.0 0.00 0.00 0.00 34 1015.4
20260506220815 77 273 1.0 7.0 0.00 0.00 0.00 34 1015.4
20260506220326 78 266 2.0 9.0 0.00 0.00 0.00 34 1015.6
20260506215817 77 221 3.0 9.0 0.00 0.00 0.00 34 1015.6
20260506215349 78 212 2.0 7.0 0.00 0.00 0.00 34 1015.7
20260506214820 77 222 2.0 7.0 0.00 0.00 0.00 35 1015.9
20260506214351 76 211 2.0 7.0 0.00 0.00 0.00 36 1016.0
20260506213821 76 313 4.0 7.0 0.00 0.00 0.00 35 1016.0
20260506213312 76 303 3.0 7.0 0.00 0.00 0.00 34 1016.1
20260506212823 77 12 2.0 5.0 0.00 0.00 0.00 34 1016.1
20260506212334 76 264 1.0 6.0 0.00 0.00 0.00 35 1016.2
20260506211824 76 162 3.0 6.0 0.00 0.00 0.00 35 1016.3
20260506211320 75 219 2.0 7.0 0.00 0.00 0.00 35 1016.4
20260506210831 75 282 4.0 7.0 0.00 0.00 0.00 37 1016.3
20260506210321 74 44 2.0 6.0 0.00 0.00 0.00 36 1016.3
20260506205811 74 288 2.0 6.0 0.00 0.00 0.00 37 1016.5
20260506205323 74 325 2.0 4.0 0.00 0.00 0.00 36 1016.6
20260506204814 74 320 1.0 4.0 0.00 0.00 0.00 36 1016.6
20260506204346 73 214 1.0 6.0 0.00 0.00 0.00 37 1016.6
20260506203815 72 207 3.0 6.0 0.00 0.00 0.00 38 1016.7
20260506203311 73 315 4.0 7.0 0.00 0.00 0.00 37 1016.8
20260506202823 73 276 2.0 7.0 0.00 0.00 0.00 38 1016.9
20260506202314 73 36 3.0 5.0 0.00 0.00 0.00 37 1016.9
20260506201826 73 295 2.0 4.0 0.00 0.00 0.00 37 1016.9
20260506201318 73 264 1.0 4.0 0.00 0.00 0.00 38 1017.1
20260506200829 72 279 2.0 4.0 0.00 0.00 0.00 40 1017.2
20260506200320 71 84 1.0 4.0 0.00 0.00 0.00 40 1017.2
20260506195810 70 65 1.0 5.0 0.00 0.00 0.00 42 1017.3
20260506195341 70 245 2.0 6.0 0.00 0.00 0.00 41 1017.4
20260506194830 71 326 3.0 6.0 0.00 0.00 0.00 41 1017.4
20260506194322 71 302 3.0 6.0 0.00 0.00 0.00 40 1017.4
20260506193817 70 238 3.0 6.0 0.00 0.00 0.00 41 1017.5
20260506193327 70 231 3.0 6.0 0.00 0.00 0.00 43 1017.7
20260506192819 69 323 4.0 7.0 0.00 0.00 0.00 43 1017.7
20260506192330 69 295 3.0 6.0 0.00 0.00 0.00 44 1017.7
20260506191820 68 41 2.0 8.0 0.00 0.00 0.00 45 1017.9
20260506191311 68 3 2.0 8.0 0.00 0.00 0.00 46 1017.9
20260506190823 68 269 2.0 7.0 0.00 0.00 0.00 46 1018.0
20260506190313 68 105 2.0 7.0 0.00 0.00 0.00 45 1018.0
20260506185845 68 339 1.0 4.0 0.00 0.00 0.00 46 1018.0
20260506185319 67 51 1.0 6.0 0.00 0.00 0.00 48 1018.1
20260506184811 67 311 2.0 6.0 0.00 0.00 0.00 47 1018.1
20260506184320 67 255 1.0 5.0 0.00 0.00 0.00 47 1018.2
20260506183832 67 300 2.0 5.0 0.00 0.00 0.00 47 1018.2
20260506183323 67 261 1.0 5.0 0.00 0.00 0.00 49 1018.3
20260506182815 66 89 1.0 5.0 0.00 0.00 0.00 50 1018.3
20260506182326 65 269 1.0 5.0 0.00 0.00 0.00 49 1018.3
20260506181838 66 311 2.0 5.0 0.00 0.00 0.00 50 1018.4
20260506181328 65 241 0.0 6.0 0.00 0.00 0.00 50 1018.5
20260506180819 65 285 0.0 5.0 0.00 0.00 0.00 51 1018.5
20260506180313 64 56 0.0 5.0 0.00 0.00 0.00 53 1018.5
20260506175825 64 264 1.0 5.0 0.00 0.00 0.00 52 1018.5
20260506175317 64 308 3.0 5.0 0.00 0.00 0.00 53 1018.6
20260506174828 63 308 3.0 5.0 0.00 0.00 0.00 53 1018.6
20260506174318 63 110 1.0 6.0 0.00 0.00 0.00 54 1018.6
20260506173830 63 304 2.0 7.0 0.00 0.00 0.00 54 1018.6
20260506173321 63 306 3.0 7.0 0.00 0.00 0.00 55 1018.6
20260506172812 62 32 1.0 6.0 0.00 0.00 0.00 55 1018.7
20260506172324 62 323 2.0 6.0 0.00 0.00 0.00 57 1018.7
20260506171818 62 309 1.0 6.0 0.00 0.00 0.00 57 1018.6
20260506171328 62 36 2.0 7.0 0.00 0.00 0.00 58 1018.6
20260506170840 61 316 2.0 7.0 0.00 0.00 0.00 59 1018.5
20260506170331 61 321 3.0 5.0 0.00 0.00 0.00 57 1018.6
20260506165821 61 299 2.0 6.0 0.00 0.01 0.00 59 1018.5
20260506165312 60 354 0.0 5.0 0.00 0.01 0.00 62 1018.5
20260506164843 60 316 2.0 5.0 0.00 0.01 0.00 61 1018.6
20260506164314 60 305 2.0 5.0 0.00 0.01 0.00 61 1018.6
20260506163826 60 237 1.0 5.0 0.00 0.01 0.00 61 1018.6
20260506163316 60 307 1.0 5.0 0.00 0.01 0.00 61 1018.5
20260506162811 60 54 0.0 4.0 0.00 0.01 0.00 63 1018.6
20260506162324 59 309 2.0 4.0 0.00 0.01 0.00 63 1018.6
20260506161835 59 42 1.0 3.0 0.00 0.01 0.00 64 1018.5
20260506161345 59 309 0.0 2.0 0.00 0.01 0.00 65 1018.5
20260506160815 58 309 1.0 3.0 0.00 0.01 0.00 64 1018.4
20260506160327 58 302 1.0 3.0 0.00 0.01 0.00 64 1018.5
20260506155819 58 309 0.0 0.0 0.00 0.03 0.00 64 1018.5
20260506155311 57 308 0.0 0.0 0.00 0.03 0.00 66 1018.5
20260506154822 57 79 0.0 0.0 0.00 0.03 0.00 66 1018.5
20260506154317 56 6 0.0 0.0 0.00 0.03 0.00 68 1018.5
20260506153829 56 340 0.0 0.0 0.00 0.03 0.00 68 1018.5
20260506153320 56 274 0.0 0.0 0.00 0.03 0.00 70 1018.5
20260506152831 56 179 0.0 0.0 0.00 0.03 0.00 71 1018.5
20260506152321 55 279 0.0 0.0 0.00 0.03 0.00 74 1018.5
20260506151834 54 278 0.0 0.0 0.00 0.03 0.00 74 1018.5
20260506151325 54 312 0.0 0.0 0.00 0.03 0.00 74 1018.5
20260506150815 54 317 0.0 0.0 0.00 0.03 0.00 73 1018.5
20260506150325 54 120 0.0 0.0 0.00 0.03 0.00 74 1018.5
20260506145816 54 120 0.0 0.0 0.00 0.06 0.00 75 1018.5
20260506145311 54 120 0.0 0.0 0.00 0.06 0.00 76 1018.5
20260506144822 53 120 0.0 0.0 0.00 0.06 0.00 78 1018.6
20260506144312 53 120 0.0 0.0 0.00 0.06 0.00 79 1018.6
20260506143823 53 120 0.0 0.0 0.00 0.06 0.00 83 1018.5
20260506143315 52 120 0.0 0.0 0.00 0.06 0.00 86 1018.5
20260506142825 51 120 0.0 0.0 0.00 0.06 0.00 90 1018.5
20260506142315 49 120 0.0 0.0 0.00 0.06 0.00 91 1018.5
20260506141827 48 120 0.0 0.0 0.00 0.06 0.00 92 1018.4
20260506141338 47 120 0.0 0.0 0.00 0.06 0.00 93 1018.4
20260506140812 46 120 0.0 0.0 0.00 0.06 0.00 93 1018.3
20260506140343 45 120 0.0 0.0 0.00 0.06 0.00 92 1018.3
20260506135831 45 120 0.0 0.0 0.00 0.07 0.00 92 1018.2
20260506135322 45 120 0.0 0.0 0.00 0.07 0.00 92 1018.2
20260506134812 45 120 0.0 0.0 0.00 0.07 0.00 92 1018.1
20260506134324 44 120 0.0 0.0 0.00 0.07 0.00 92 1018.2
20260506133814 44 120 0.0 0.0 0.00 0.07 0.00 92 1018.1
20260506133325 44 120 0.0 0.0 0.00 0.07 0.00 92 1018.2
20260506132816 44 120 0.0 0.0 0.00 0.07 0.00 92 1018.2
20260506132328 44 120 0.0 0.0 0.00 0.07 0.00 92 1018.3
20260506131820 44 120 0.0 0.0 0.00 0.07 0.00 92 1018.2
20260506131331 44 120 0.0 0.0 0.00 0.07 0.00 92 1018.0
20260506130821 44 120 0.0 0.0 0.00 0.07 0.00 92 1018.1
20260506130316 44 120 0.0 0.0 0.00 0.07 0.00 91 1018.1
20260506125828 44 120 0.0 0.0 0.00 0.09 0.00 91 1018.0
20260506125320 44 120 0.0 0.0 0.00 0.09 0.00 91 1018.0
20260506124812 44 120 0.0 0.0 0.00 0.09 0.00 91 1018.0
20260506124323 44 120 0.0 0.0 0.00 0.09 0.00 91 1018.0
20260506123834 44 120 0.0 0.0 0.00 0.09 0.00 91 1017.9
20260506123343 44 120 0.0 0.0 0.00 0.09 0.00 91 1017.7
20260506122813 44 120 0.0 0.0 0.00 0.09 0.00 90 1017.9
20260506122345 45 119 0.0 0.0 0.00 0.09 0.00 91 1017.8
20260506121814 45 120 0.0 0.0 0.00 0.09 0.00 91 1017.6
20260506121330 45 120 0.0 0.0 0.00 0.09 0.00 91 1017.7
20260506120820 45 119 0.0 0.0 0.00 0.09 0.00 91 1017.6
20260506120311 45 120 0.0 0.0 0.00 0.09 0.00 90 1017.6
20260506115822 45 120 0.0 0.0 0.00 0.10 0.00 90 1017.6
20260506115313 45 120 0.0 0.0 0.00 0.10 0.00 90 1017.7
20260506114843 45 120 0.0 0.0 0.00 0.10 0.00 91 1017.6
20260506114312 45 120 0.0 0.0 0.00 0.10 0.00 90 1017.6
20260506113843 45 120 0.0 0.0 0.00 0.10 0.00 90 1017.5
20260506113333 45 120 0.0 0.0 0.00 0.10 0.00 90 1017.6
20260506112844 45 120 0.0 0.0 0.00 0.10 0.00 90 1017.7
20260506112333 46 120 0.0 0.0 0.00 0.10 0.00 90 1017.6
20260506111824 46 120 0.0 0.0 0.00 0.10 0.00 90 1017.6
20260506111315 46 120 0.0 0.0 0.00 0.10 0.00 90 1017.5
20260506110830 46 120 0.0 0.0 0.00 0.10 0.00 90 1017.5
20260506110342 46 220 0.0 0.0 0.00 0.10 0.00 89 1017.5
20260506105813 46 220 0.0 0.0 0.00 0.10 0.00 90 1017.5
20260506105324 46 220 0.0 0.0 0.00 0.10 0.00 90 1017.5
20260506104814 46 220 0.0 0.0 0.00 0.10 0.00 89 1017.4
20260506104325 46 220 0.0 0.0 0.00 0.10 0.00 89 1017.6
20260506103816 46 220 0.0 0.0 0.00 0.10 0.00 89 1017.4
20260506103327 47 220 0.0 0.0 0.00 0.10 0.00 89 1017.4
20260506102839 47 220 0.0 0.0 0.00 0.10 0.00 89 1017.5
20260506102349 47 220 0.0 0.0 0.00 0.10 0.00 89 1017.4
20260506101818 47 220 0.0 0.0 0.00 0.10 0.00 88 1017.4
20260506101313 48 220 0.0 0.0 0.00 0.10 0.00 88 1017.5
20260506100844 48 220 0.0 0.0 0.00 0.10 0.00 89 1017.4
20260506100313 48 220 0.0 0.0 0.00 0.10 0.00 89 1017.3
20260506095823 48 220 0.0 0.0 0.00 0.11 0.00 88 1017.4
20260506095314 48 220 0.0 0.0 0.00 0.11 0.00 88 1017.4
20260506094846 48 220 0.0 0.0 0.00 0.11 0.00 88 1017.4
20260506094316 49 220 0.0 0.0 0.00 0.11 0.00 87 1017.4
20260506093849 49 220 0.0 0.0 0.00 0.11 0.00 87 1017.4
20260506093319 49 220 0.0 0.0 0.00 0.11 0.00 87 1017.4
20260506092830 49 220 0.0 0.0 0.00 0.11 0.00 87 1017.5
20260506092324 49 220 0.0 0.0 0.00 0.11 0.00 87 1017.5
20260506091815 49 220 0.0 0.0 0.00 0.11 0.00 87 1017.5
20260506091346 49 220 0.0 0.0 0.00 0.11 0.00 86 1017.6
20260506090815 49 220 0.0 0.0 0.00 0.11 0.00 86 1017.6
20260506090327 50 220 0.0 0.0 0.00 0.11 0.00 85 1017.6
20260506085817 50 220 0.0 0.0 0.00 0.14 0.00 85 1017.7